When you browse on this site, cookies collect data to enhance your experience and personalize the content and advertising you see.
Visit our Privacy Policy to learn more. By continuing to use the site, you agree to this use of cookies and data.
  • In Latvia
  • List of Countries
  • For 7 days
  • Water Temperature
  • Weather Map
  • Weather Widgets
  • user-avatar
    Login

    Hourly Weather Georgetown

    Today, 31 May, Sunday

    Time Temperature Precipitation Wind Pressure Humidity
    00:00 +32°C° 0 mm 1 mps 732 mmHg 39%
    01:00 +32°C° 0 mm 1 mps 732 mmHg 39%
    02:00 +31°C° 0 mm 2 mps 732 mmHg 42%
    03:00 +31°C° 0 mm 2 mps 731 mmHg 45%
    04:00 +30°C° 0 mm 2 mps 731 mmHg 49%
    05:00 +30°C° 0 mm 3 mps 732 mmHg 50%
    06:00 +32°C° 0 mm 4 mps 733 mmHg 52%
    07:00 +33°C° 0 mm 5 mps 733 mmHg 53%
    08:00 +34°C° 0 mm 5 mps 733 mmHg 52%
    09:00 +34°C° 0 mm 4 mps 733 mmHg 51%
    10:00 +35°C° 0 mm 4 mps 733 mmHg 50%
    11:00 +36°C° 0 mm 4 mps 733 mmHg 48%
    12:00 +36°C° 0 mm 4 mps 733 mmHg 47%
    13:00 +36°C° 0 mm 3 mps 732 mmHg 45%
    14:00 +37°C° 0 mm 3 mps 732 mmHg 43%
    15:00 +37°C° 0 mm 3 mps 731 mmHg 41%
    16:00 +37°C° 0 mm 3 mps 731 mmHg 39%
    17:00 +36°C° 0 mm 3 mps 731 mmHg 41%
    18:00 +35°C° 0 mm 2 mps 731 mmHg 42%
    19:00 +34°C° 0 mm 2 mps 731 mmHg 43%
    20:00 +34°C° 0 mm 2 mps 731 mmHg 44%
    21:00 +32°C° 0 mm 2 mps 732 mmHg 45%
    22:00 +31°C° 0 mm 1 mps 732 mmHg 46%
    23:00 +31°C° 0 mm 2 mps 732 mmHg 45%

    Tomorrow, 1 June, Monday

    Time Temperature Precipitation Wind Pressure Humidity
    00:00 +31°C° 0 mm 2 mps 732 mmHg 44%
    01:00 +31°C° 0 mm 2 mps 732 mmHg 43%
    02:00 +31°C° 0 mm 2 mps 732 mmHg 42%
    03:00 +32°C° 0 mm 2 mps 732 mmHg 40%
    04:00 +32°C° 0 mm 2 mps 732 mmHg 39%
    05:00 +32°C° 0 mm 2 mps 732 mmHg 39%
    06:00 +33°C° 0 mm 3 mps 733 mmHg 39%
    07:00 +33°C° 0 mm 3 mps 733 mmHg 40%
    08:00 +34°C° 0 mm 4 mps 733 mmHg 41%
    09:00 +35°C° 0 mm 4 mps 733 mmHg 42%
    10:00 +35°C° 0 mm 5 mps 733 mmHg 43%
    11:00 +36°C° 0 mm 5 mps 733 mmHg 42%
    12:00 +36°C° 0 mm 4 mps 732 mmHg 40%
    13:00 +37°C° 0 mm 4 mps 732 mmHg 38%
    14:00 +37°C° 0 mm 4 mps 731 mmHg 36%
    15:00 +37°C° 0 mm 4 mps 730 mmHg 33%
    16:00 +38°C° 0 mm 4 mps 730 mmHg 31%
    17:00 +36°C° 0 mm 3 mps 730 mmHg 34%
    18:00 +35°C° 0 mm 2 mps 730 mmHg 37%
    19:00 +32°C° 0 mm 1 mps 730 mmHg 40%
    20:00 +32°C° 0 mm 2 mps 730 mmHg 39%
    21:00 +32°C° 0 mm 2 mps 730 mmHg 38%
    22:00 +32°C° 0 mm 2 mps 731 mmHg 38%
    23:00 +32°C° 0 mm 1 mps 731 mmHg 37%

    Day after tomorrow, 2 June, Tuesday

    Time Temperature Precipitation Wind Pressure Humidity
    00:00 +32°C° 0 mm 1 mps 731 mmHg 37%
    01:00 +32°C° 0 mm 1 mps 731 mmHg 36%
    02:00 +32°C° 0 mm 1 mps 730 mmHg 36%
    03:00 +31°C° 0 mm 2 mps 730 mmHg 36%
    04:00 +31°C° 0 mm 2 mps 730 mmHg 35%
    05:00 +33°C° 0 mm 3 mps 731 mmHg 37%
    06:00 +33°C° 0 mm 4 mps 731 mmHg 39%
    07:00 +33°C° 0 mm 5 mps 732 mmHg 41%
    08:00 +34°C° 0 mm 6 mps 732 mmHg 44%
    09:00 +34°C° 0 mm 6 mps 732 mmHg 48%
    10:00 +35°C° 0 mm 6 mps 732 mmHg 51%
    11:00 +35°C° 0 mm 5 mps 732 mmHg 49%
    12:00 +36°C° 0 mm 3 mps 731 mmHg 47%
    13:00 +37°C° 0 mm 2 mps 731 mmHg 44%
    14:00 +37°C° 0 mm 2 mps 730 mmHg 42%
    15:00 +38°C° 0 mm 2 mps 729 mmHg 40%
    16:00 +37°C° 0 mm 1 mps 729 mmHg 38%
    17:00 +36°C° 0 mm 1 mps 729 mmHg 40%
    18:00 +34°C° 0 mm 1 mps 729 mmHg 43%
    19:00 +33°C° 0 mm 1 mps 729 mmHg 46%
    20:00 +32°C° 0 mm 1 mps 729 mmHg 45%
    21:00 +32°C° 0 mm 1 mps 730 mmHg 44%
    22:00 +32°C° 0 mm 1 mps 730 mmHg 43%
    23:00 +31°C° 0 mm 3 mps 730 mmHg 50%

    3 June, Wednesday

    Time Temperature Precipitation Wind Pressure Humidity
    00:00 +32°C° 0 mm 5 mps 730 mmHg 58%
    01:00 +31°C° 0 mm 8 mps 730 mmHg 65%
    02:00 +30°C° 0 mm 7 mps 730 mmHg 67%
    03:00 +30°C° 0 mm 7 mps 730 mmHg 69%
    04:00 +29°C° 0 mm 6 mps 730 mmHg 71%
    05:00 +30°C° 0 mm 6 mps 730 mmHg 67%
    06:00 +30°C° 0 mm 7 mps 731 mmHg 63%
    07:00 +30°C° 0 mm 7 mps 731 mmHg 59%
    08:00 +32°C° 0 mm 6 mps 731 mmHg 59%
    09:00 +33°C° 0 mm 5 mps 732 mmHg 60%
    10:00 +33°C° 0 mm 5 mps 732 mmHg 60%
    11:00 +34°C° 0 mm 4 mps 731 mmHg 58%
    12:00 +35°C° 0 mm 3 mps 731 mmHg 55%
    13:00 +36°C° 0 mm 2 mps 730 mmHg 53%
    14:00 +36°C° 0 mm 2 mps 730 mmHg 50%
    15:00 +37°C° 0 mm 2 mps 729 mmHg 48%
    16:00 +37°C° 0 mm 2 mps 728 mmHg 45%
    17:00 +37°C° 0 mm 2 mps 728 mmHg 45%
    18:00 +36°C° 0 mm 2 mps 729 mmHg 44%
    19:00 +35°C° 0 mm 2 mps 729 mmHg 43%
    20:00 +36°C° 0 mm 2 mps 729 mmHg 42%
    21:00 +36°C° 0 mm 2 mps 730 mmHg 41%
    22:00 +36°C° 0 mm 2 mps 730 mmHg 39%
    23:00 +36°C° 0 mm 4 mps 730 mmHg 40%

    4 June, Thursday

    Time Temperature Precipitation Wind Pressure Humidity
    00:00 +35°C° 0 mm 6 mps 730 mmHg 40%
    01:00 +35°C° 0 mm 8 mps 729 mmHg 40%
    02:00 +34°C° 0 mm 8 mps 730 mmHg 51%
    03:00 +32°C° 0 mm 7 mps 730 mmHg 62%
    04:00 +30°C° 0 mm 7 mps 730 mmHg 72%
    05:00 +30°C° 0 mm 7 mps 730 mmHg 72%
    06:00 +30°C° 0 mm 7 mps 731 mmHg 72%
    07:00 +32°C° 0 mm 7 mps 731 mmHg 71%
    08:00 +32°C° 0 mm 7 mps 732 mmHg 68%
    09:00 +33°C° 0 mm 7 mps 732 mmHg 65%
    10:00 +34°C° 0 mm 7 mps 732 mmHg 61%
    11:00 +35°C° 0 mm 5 mps 732 mmHg 57%
    12:00 +36°C° 0 mm 4 mps 731 mmHg 53%
    13:00 +37°C° 0 mm 3 mps 731 mmHg 49%
    14:00 +37°C° 0 mm 2 mps 730 mmHg 47%
    15:00 +37°C° 0 mm 2 mps 730 mmHg 45%
    16:00 +37°C° 0 mm 2 mps 729 mmHg 44%
    17:00 +37°C° 0 mm 2 mps 729 mmHg 45%
    18:00 +35°C° 0 mm 1 mps 729 mmHg 47%
    19:00 +34°C° 0 mm 1 mps 729 mmHg 48%
    20:00 +35°C° 0 mm 2 mps 729 mmHg 45%
    21:00 +35°C° 0 mm 2 mps 730 mmHg 42%
    22:00 +36°C° 0 mm 3 mps 730 mmHg 40%
    23:00 +36°C° 0 mm 4 mps 730 mmHg 39%

    5 June, Friday

    Time Temperature Precipitation Wind Pressure Humidity
    00:00 +35°C° 0 mm 6 mps 730 mmHg 38%
    01:00 +35°C° 0 mm 7 mps 730 mmHg 38%
    02:00 +34°C° 0 mm 7 mps 730 mmHg 48%
    03:00 +33°C° 0 mm 7 mps 730 mmHg 58%
    04:00 +30°C° 0 mm 7 mps 730 mmHg 69%
    05:00 +32°C° 0 mm 7 mps 731 mmHg 68%
    06:00 +32°C° 0 mm 7 mps 731 mmHg 67%
    07:00 +32°C° 0 mm 8 mps 732 mmHg 66%
    08:00 +33°C° 0 mm 7 mps 732 mmHg 63%
    09:00 +33°C° 0 mm 7 mps 733 mmHg 61%
    10:00 +34°C° 0 mm 6 mps 733 mmHg 59%
    11:00 +35°C° 0 mm 5 mps 732 mmHg 54%
    12:00 +36°C° 0 mm 4 mps 732 mmHg 50%
    13:00 +37°C° 0 mm 3 mps 731 mmHg 45%
    14:00 +37°C° 0 mm 3 mps 731 mmHg 44%
    15:00 +37°C° 0 mm 2 mps 730 mmHg 43%
    16:00 +38°C° 0 mm 2 mps 729 mmHg 42%
    17:00 +37°C° 0 mm 2 mps 730 mmHg 44%
    18:00 +35°C° 0 mm 2 mps 730 mmHg 46%
    19:00 +34°C° 0 mm 2 mps 730 mmHg 47%
    20:00 +34°C° 0 mm 5 mps 730 mmHg 52%
    21:00 +33°C° 0 mm 8 mps 731 mmHg 57%
    22:00 +33°C° 0 mm 12 mps 732 mmHg 62%
    23:00 +32°C° 0 mm 11 mps 732 mmHg 65%
    Show more